Zurück zum Katalog

FENGYUN 1C DEB

AktivPO
NORAD 36163·DEBRIS·🇨🇳 China

Gestartet May 10, 1999 von Taiyuan Satellite Launch Center

Loading…

Nächste Überflüge (nächste 24 Stunden)

TLE

AktuellSource: Space-Track

Epoche: Sep 13, 2026, 22:11 UTC

1 36163U 99025DSL 26256.92468889  .00010159  00000-0  17875-2 0  9995
2 36163  99.0740 133.8186 0033770 318.2764  41.5862 14.67454725932130

Verfolge FENGYUN 1C DEB in Echtzeit mit AllMySat

Download on the App Store